Location: Bacharowice
(49.9333°N, 19.5833°E)
Time: 11:04:14
(UTC+00:00)

SL-27 R/B - Pass Details

Date: 11 May 2021
Orbit: 417 x 468 km, 74.7° (Epoch: 22 June)

Event Time Altitude Azimuth Distance (km) Brightness Sun altitude
Rises 22:49:44 0° 334° (NNW) 2,382 7.1 -21.9°
Reaches altitude 10° 22:51:48 10° 330° (NNW) 1,516 5.8 -21.9°
Enters shadow 22:54:17 42° 302° (WNW) 615 3.2 -21.8°
